Probability
0 0 0 0 0 0 0 0 0 0 0 0 0 0 0 0 0 0 0 0 0 0 0 0 0 0 0 0 0 0 0 0 0 0 0 0 0 0 0 0 0 0 0 0
0 0 0 0 0 0 0 0 0 0 0 0 0 0 0 0 0 0 0 0 0 0 0 0 0 0 0 0 0 0 0 0 0 0 0 0 0 0 0 0 0 0 0 0
0 0 0 0 0 0 0 0 0 0 0 0 0 0 0 0 0 0 0 0 0 0 0 0 0 0 0 0 0 0 0 0 0 0 0 0 0 0 0 0 0 0 0 0
0 0 0 0 0 0 0 0 0 0 0 0 0 0 0 0 0 0 0 0 0 0 0 0 0 0 0 0 0 0 0 0 0 0 0 0 0 0 0 0 0 0 0 0
0 0 0 0 0 0 0 0 0 0 0 0 0 0 0 0 0 0 0 0 0 0 0 0 0 0 0 0 0 0 0 0 0 0 0 0 0 0 0 0 0 0 0 0
0 0 0 0 0 0 0 0 0 0 0 0 0 0 0 0 0 0 0 0 0 0 0 0 0 0 0 0 0 0 0 0 0 0 0 0 0 0 0 0 0 0 0 0
0 0 0 0 0 0 0 0 0 0 0 0 0 0 0 0 0 0 0 0 0 0 0 0 0 0 0 0 0 0 0 0 0 0 0 0 0 0 0 0 0 0 0 0
0 0 0 0 0 0 0 0 0 0 0 0 0 0 0 0 0 0 0 0 0 0 0 0 0 0 0 0 0 0 0 0 0 0 0 0 0 0 0 0 0 0 0 0
0 0 0 0 0 0 0 0 0 0 0 0 0 0 0 0 0 0 0 0 0 0 0 0 0 0 0 0 0 0 0 0 0 0 0 0 0 0 0 0 0 0 0 0
0 0 0 0 0 0 0 0 0 0 0 0 0 0 0 0 0 0 0 0 0 0 0 0 0 0 0 0 0 0 0 0 0 0 0 0 0 0 0 0 0 0 0 0
0 0 0 0 0 0 0 0 0 0 0 0 0 0 0 0 0 0 0 0 0 0 0 0 0 0 0 0 0 0 0 0 0 0 0 0 0 0 0 0 0 0 0 0
0 0 0 0 0 0 0 0 0 0 0 0 0 0 0 0 0 0 0 0 0 0 0 0 0 0 0 0 0 0 0 0 0 0 0 0 0 0 0 0 0 0 0 0
0 0 0 0 0 0 0 0 0 0 0 0 0 0 0 0 0 0 0 0 0 0 0 0 0 0 0 0 0 0 0 0 0 0 0 0 0 0 0 0 0 0 0 0
0 0 0 0 0 0 0 0 0 0 0 0 0 0 0 0 0 0 0 0 0 0 0 0 0 0 0 0 0 0 0 0 0 0 0 0 0 0 0 0 0 0 0 0
0 0 0 0 0 0 0 0 0 0 0 0 0 0 0 0 0 0 0 0 0 0 0 0 0 0 0 0 0 0 0 0 0 0 0 0 0 0 0 0 0 0 0 0
0 0 0 0 0 0 0 0 0 0 0 0 0 0 0 0 0 0 0 0 0 0 0 0 0 0 0 0 0 0 0 0 0 0 0 0 0 0 0 0 0 0 0 0
0 0 0 0 0 0 0 0 0 0 0 0 0 0 0 0 0 0 0 0 0 0 0 0 0 0 0 0 0 0 0 0 0 0 0 0 0 0 0 0 0 0 0 0
0 0 0 0 0 0 0 0 0 0 0 0 0 0 0 0 0 0 0 0 0 0 0 0 0 0 0 0 0 0 0 0 0 0 0 0 0 0 0 0 0 0 0 0
0 0 0 0 0 0 0 0 0 0 0 0 0 0 0 0 0 0 0 0 0 0 0 0 0 0 0 0 0 0 0 0 0 0 0 0 0 0 0 0 0 0 0 0
0 0 0 0 0 0 0 0 0 0 0 0 0 0 0 0 0 0 0 0 0 0 0 0 0 0 0 0 0 0 0 0 0 0 0 0 0 0 0 0 0 0 0 0
0 0 0 0 0 0 0 0 0 0 0 0 0 0 0 0 0 0 0 0 0 0 0 0 0 0 0 0 0 0 0 0 0 0 0 0 0 0 0 0 0 0 0 0
0 0 0 0 0 0 0 0 0 0 0 0 0 0 0 0 0 0 0 0 0 0 0 0 0 0 0 0 0 0 0 0 0 0 0 0 0 0 0 0 0 0 0 0
0 0 0 0 0 0 0 0 0 0 0 0 0 0 0 0 0 0 0 0 0 0 0 0 0 0 0 0 0 0 0 0 0 0 0 0 0 0 0 0 0 0 0 0
0 0 0 0 0 0 0 0 0 0 0 0 0 0 0 0 0 0 0 0 0 0 0 0 0 0 0 0 0 0 0 0 0 0 0 0 0 0 0 0 0 0 0 0
0 0 0 0 0 0 0 0 0 0 0 0 0 0 0 0 0 0 0 0 0 0 0 0 0 0 0 0 0 0 0 0 0 0 0 0 0 0 0 0 0 0 0 0
0 0 0 0 0 0 0 0 0 0 0 0 0 0 0 0 0 0 0 0 0 0 0 0 0 0 0 0 0 0 0 0 0 0 0 0 0 0 0 0 0 0 0 0
0 0 0 0 0 0 0 0 0 0 0 0 0 0 0 0 0 0 0 0 0 0 0 0 0 0 0 0 0 0 0 0 0 0 0 0 0 0 0 0 0 0 0 0
Wind_Speed
8 7 6 8 9 9 11 11 11 11 11 13 9 6 6 5 4 3 3 3 3 3 3 3 3 4 4 4 3 3 2 3 4 4 4 4 4 4 4 4 5 5 5 5
7 7 9 12 13 13 14 12 14 13 15 10 7 4 4 5 4 4 4 4 4 4 4 4 4 4 4 4 4 3 3 4 4 4 3 3 4 4 4 4 4 4 5 5
7 4 5 12 12 13 10 9 10 14 13 5 4 5 6 6 5 5 5 4 4 4 5 5 4 4 4 5 4 3 4 4 4 4 4 4 4 3 4 4 4 4 5 5
4 2 11 9 4 7 9 9 9 8 6 5 6 5 5 5 5 5 4 4 4 4 5 4 4 4 4 4 3 4 4 4 4 4 4 4 3 4 4 4 4 4 5 5
4 7 11 8 4 5 7 7 7 9 8 5 2 2 4 5 5 5 5 5 5 4 4 4 4 4 3 4 4 4 5 5 5 4 4 4 4 5 4 4 4 4 4 5
5 7 9 6 3 2 3 5 3 5 5 3 1 2 6 4 3 4 4 3 4 4 3 4 4 3 3 4 4 5 6 6 5 4 5 5 6 5 4 4 5 5 5 5
9 9 9 5 2 2 3 6 3 4 5 5 5 6 5 3 3 4 4 4 4 3 4 4 4 3 4 5 6 7 6 5 5 5 5 5 5 4 4 4 4 5 5 5
5 8 10 2 2 3 6 5 4 4 4 4 5 5 5 4 5 5 5 5 4 4 5 5 4 3 5 6 7 6 5 5 5 5 5 4 4 4 4 4 5 5 5 6
8 8 5 2 5 6 5 6 6 4 4 4 5 6 6 6 6 6 6 6 5 5 6 6 5 4 6 8 6 5 5 6 5 5 5 5 4 5 4 4 4 5 4 5
6 8 8 8 8 7 5 6 6 5 5 5 6 7 7 7 6 6 6 6 5 5 6 7 6 6 7 7 6 5 6 6 5 5 5 5 4 4 4 5 5 5 5 6
9 9 8 6 6 6 6 6 6 6 6 6 6 7 7 7 6 6 6 5 5 5 7 8 7 7 7 6 5 6 6 6 5 5 5 5 5 5 6 6 7 7 6 6
10 8 7 9 7 7 7 7 7 7 7 6 6 7 7 6 6 6 6 6 6 6 7 8 7 8 7 6 6 6 6 5 5 4 4 4 5 6 8 10 12 14 13 11
11 9 8 9 8 7 7 7 7 7 7 7 6 6 6 6 6 5 6 6 7 7 8 8 7 8 8 6 6 6 7 6 5 5 5 5 5 5 6 7 10 12 14 14
9 8 9 8 8 7 7 7 6 6 6 6 6 6 6 6 6 6 7 8 7 7 8 8 8 9 8 6 6 7 7 7 7 5 5 5 5 6 6 6 6 6 7 12
8 8 9 7 7 7 6 5 5 6 6 6 5 6 6 7 7 8 8 7 7 7 8 8 9 10 8 6 6 7 6 5 5 5 5 6 5 5 6 6 6 6 5 6
6 6 6 7 7 7 6 5 6 7 6 6 6 6 7 7 8 8 8 6 6 8 9 8 9 9 7 6 7 6 6 9 8 6 5 5 5 6 6 6 6 6 6 5
4 5 5 5 6 6 6 6 6 6 6 6 7 8 7 7 8 8 8 7 7 9 9 9 9 9 7 7 7 6 6 7 9 6 6 6 6 6 6 6 6 6 6 6
4 5 5 5 5 6 6 6 6 6 7 8 8 7 7 8 9 10 9 8 8 9 9 9 9 8 8 8 7 6 6 6 5 6 6 6 6 6 6 6 7 7 6 6
4 5 6 6 6 6 6 7 7 7 7 7 7 8 9 9 9 9 8 8 9 10 10 7 10 9 8 8 8 6 6 6 6 6 5 8 8 6 6 6 6 6 6 5
5 5 6 6 6 6 7 8 8 7 7 7 8 8 9 9 9 8 8 9 9 8 8 8 8 7 7 8 9 5 6 6 6 6 6 6 6 6 6 6 6 6 6 5
7 7 7 7 8 8 8 8 7 9 9 8 8 9 10 10 9 8 8 10 9 8 8 12 8 7 6 7 9 6 6 6 6 6 6 6 6 6 6 6 6 6 5 5
7 7 8 8 8 9 8 7 7 9 9 9 9 9 9 10 10 9 9 9 9 10 8 6 6 9 10 11 6 5 6 6 6 6 6 6 6 6 6 6 6 6 5 5
8 8 9 9 9 9 9 8 8 8 9 10 10 10 10 10 7 7 9 7 6 10 8 7 10 14 15 8 5 6 6 7 7 6 6 6 6 6 6 6 5 5 5 5
9 9 9 9 8 8 10 10 9 8 9 9 9 10 9 8 8 7 7 11 13 13 8 10 14 15 14 6 5 5 6 6 6 6 6 5 5 5 5 5 5 5 5 5
9 9 9 9 8 8 9 9 8 8 8 8 9 9 7 6 7 8 7 8 12 12 8 10 14 14 9 5 5 6 6 6 6 5 5 5 5 5 5 5 5 4 4 4
9 8 8 8 8 7 7 6 7 7 7 8 8 6 5 5 7 7 7 8 9 11 8 6 6 8 5 5 6 6 6 6 6 6 5 5 5 5 5 4 5 4 4 4
8 7 7 7 7 7 6 6 7 8 7 8 9 7 6 6 6 6 7 7 6 6 6 6 5 5 5 5 5 5 5 5 5 4 4 4 4 4 4 4 4 3 3 3
Wind_Direction
258 269 261 254 247 220 217 220 228 245 246 260 260 257 256 255 264 273 280 283 279 280 287 294 296 296 293 292 294 290 281 273 268 267 262 259 258 256 252 248 247 245 246 248
271 260 259 263 253 238 235 234 240 256 264 258 261 257 256 254 246 250 262 271 275 277 280 283 283 286 290 289 289 289 281 277 279 278 272 267 266 265 262 258 255 252 248 247
273 277 294 263 234 220 222 218 214 237 249 265 272 254 249 248 239 238 251 263 270 273 269 268 267 268 275 278 285 286 277 280 281 277 274 271 271 270 265 262 259 257 256 251
263 265 247 248 207 205 223 239 222 235 260 264 252 254 252 240 228 238 244 249 263 269 273 272 271 275 278 285 285 280 276 276 275 272 271 272 269 264 262 257 253 254 255 252
227 249 269 279 239 192 207 252 223 230 254 270 272 331 291 251 224 228 233 243 251 255 260 272 275 274 282 287 286 284 278 274 272 267 268 268 266 264 261 257 259 257 254 250
225 240 251 260 279 219 160 264 241 220 240 247 140 266 274 274 251 245 252 256 261 269 273 277 279 280 282 284 285 279 275 272 270 264 259 258 258 260 259 253 256 259 258 251
235 248 260 269 292 111 195 259 281 232 230 215 210 229 254 274 269 264 268 270 271 274 271 271 275 272 274 277 272 270 273 275 273 265 259 256 258 257 258 259 261 259 261 260
216 239 253 248 116 197 251 288 286 269 249 237 248 263 268 265 263 270 276 276 272 271 275 277 272 262 268 269 269 272 272 272 271 267 264 262 254 260 256 255 261 263 264 270
211 230 261 238 231 256 272 281 280 267 263 255 262 268 270 270 267 268 265 268 264 260 273 277 265 247 260 269 275 275 271 267 266 268 262 254 247 254 258 249 251 258 256 262
260 266 271 274 274 276 271 272 282 281 278 270 266 267 270 271 270 269 266 265 265 263 267 273 267 255 254 264 268 265 266 269 267 266 268 261 250 243 245 246 248 251 253 255
262 274 288 281 277 279 282 280 281 283 279 271 267 269 268 269 269 267 267 267 261 258 263 268 269 267 265 261 257 259 263 266 268 262 260 262 255 244 243 240 237 245 249 245
254 256 257 273 279 282 279 276 277 280 280 270 253 256 263 266 268 268 268 269 268 266 266 270 269 269 268 260 249 250 262 264 260 260 261 259 263 271 252 249 258 256 254 251
254 267 264 269 270 263 261 266 270 270 268 271 269 258 261 268 271 268 269 267 265 266 267 268 269 270 269 261 249 244 250 257 258 255 254 255 255 262 277 274 259 256 257 257
255 260 266 261 262 266 263 266 270 272 270 266 268 271 271 273 276 274 271 267 265 267 268 267 268 270 269 264 255 252 250 253 252 249 248 249 250 253 257 267 277 274 260 259
254 242 248 263 271 272 270 271 275 279 281 281 276 274 273 275 277 277 277 275 272 270 269 268 269 272 271 263 257 256 253 251 247 247 246 248 249 251 253 255 261 268 273 267
276 273 262 261 267 274 276 270 269 276 282 284 287 283 278 274 275 278 277 271 267 271 271 269 270 272 272 264 259 258 255 254 252 250 248 249 247 248 252 255 258 258 258 259
275 280 277 283 281 278 270 264 263 269 277 278 279 282 284 283 283 281 280 274 266 269 271 269 271 274 271 263 256 255 255 256 255 252 248 248 248 248 250 252 253 254 254 252
246 254 263 269 278 284 285 282 274 272 271 272 277 280 279 277 277 279 282 284 282 280 274 268 269 272 268 263 257 254 250 250 247 247 249 249 252 250 249 251 252 254 259 257
275 274 276 275 271 272 275 277 276 274 275 277 276 274 272 271 271 275 279 282 280 281 280 270 273 272 269 265 262 255 250 250 251 250 249 257 261 253 250 249 250 251 254 253
285 285 283 282 280 272 271 273 276 278 278 276 275 276 277 276 275 274 276 273 267 265 272 278 278 273 269 266 264 254 247 246 249 252 250 250 253 255 252 250 250 250 249 247
287 288 287 285 284 280 271 270 273 276 278 274 270 272 276 279 278 275 275 279 276 267 268 275 274 270 268 267 265 252 246 247 248 249 249 251 253 255 253 250 248 249 249 248
278 280 282 282 282 282 280 273 269 273 278 278 275 274 276 279 280 276 265 264 274 278 278 272 270 270 273 275 260 249 249 249 249 249 249 249 250 252 251 249 248 246 245 243
273 274 277 278 276 278 281 278 272 271 273 275 276 275 273 274 275 276 282 277 273 277 279 271 274 278 281 278 260 253 251 250 250 249 248 247 247 248 249 249 248 246 244 243
271 273 274 275 276 278 280 280 277 272 269 270 269 267 268 275 277 264 263 278 282 283 278 275 280 283 284 272 260 256 254 253 251 249 249 247 246 246 246 246 247 244 240 237
271 272 273 274 274 272 273 277 281 278 276 275 273 269 262 257 264 276 277 275 279 284 280 279 283 286 282 267 259 257 255 252 252 251 246 246 246 246 246 243 241 240 237 232
268 270 269 265 264 269 274 275 277 279 281 283 283 277 271 267 265 270 275 275 275 280 279 276 277 279 273 265 260 258 256 259 261 254 246 245 245 246 245 244 240 236 230 225
268 268 270 272 269 263 263 265 268 273 274 277 282 284 281 279 276 274 275 276 278 277 276 274 273 271 270 266 263 261 258 256 254 251 248 243 240 242 241 237 235 227 222 218